This demonstration page uses our WeatherBlox Daily Observations layout. Learn more.

Left ArrowRight Arrow

41.86663, -103.66717

Hourly Observations for March 5, 2020

Temp ( °F °C ) Dew Point ( °F °C ) Humidity (%) Winds ( mph kmh ) Pressure ( in mb ) Visibility ( mi km ) Precip ( " mm )
12:53 am 00:53 Cloudy 35 1.7 21 -6.1 57 57 NW 18 30 30.21 1023 10 16 N/A
1:53 am 01:53 Cloudy 35 1.7 21 -6.1 57 57 WNW 16 26 30.24 1024 10 16 N/A
2:53 am 02:53 Cloudy 34 1.1 20 -6.7 56 56 WNW 15 24 30.26 1025 10 16 N/A
3:53 am 03:53 Cloudy 34 1.1 21 -6.1 59 59 WNW 12 19 30.28 1025 10 16 N/A
4:53 am 04:53 Cloudy 34 1.1 21 -6.1 59 59 WNW 12 19 30.31 1026 10 16 N/A
5:53 am 05:53 Mostly Cloudy 32 undefined 20 -6.7 61 61 WNW 10 17 30.35 1028 10 16 N/A
6:53 am 06:53 Sunny 31 -0.6 19 -7.2 61 61 WNW 9 15 30.38 1029 10 16 N/A
7:53 am 07:53 Sunny 34 1.1 20 -6.7 56 56 WNW 12 19 30.41 1030 10 16 N/A
8:53 am 08:53 Sunny 38 3.3 20 -6.7 48 48 WNW 13 20 30.43 1030 10 16 N/A
9:53 am 09:53 Sunny 45 7.2 11 -11.7 25 25 NW 16 26 30.43 1030 10 16 N/A
10:53 am 10:53 Sunny 46 7.8 12 -11.1 25 25 NNW 14 22 30.43 1031 10 16 N/A
11:53 am 11:53 Sunny 48 8.9 15 -9.4 27 27 NNW 13 20 30.42 1030 10 16 N/A
12:53 pm 12:53 Sunny 50 10 16 -8.9 26 26 NNW 14 22 30.40 1029 10 16 N/A
1:53 pm 13:53 Sunny 51 10.6 18 -7.8 27 27 NW 10 17 30.37 1029 10 16 N/A
2:53 pm 14:53 Sunny 53 11.7 18 -7.8 25 25 VRB 3 6 30.36 1028 10 16 N/A
3:53 pm 15:53 Sunny 53 11.7 19 -7.2 26 26 NW 5 7 30.36 1028 10 16 N/A
4:53 pm 16:53 Sunny 52 11.1 19 -7.2 27 27 E 3 6 30.37 1028 10 16 N/A
5:53 pm 17:53 Clear 41 5 18 -7.8 39 39 E 5 7 30.40 1029 10 16 N/A
6:53 pm 18:53 Clear 37 2.8 18 -7.8 46 46 ENE 8 13 30.42 1030 10 16 N/A
7:53 pm 19:53 Clear 32 undefined 16 -8.9 52 52 ESE 8 13 30.44 1031 10 16 N/A
8:53 pm 20:53 Clear 32 undefined 16 -8.9 52 52 E 10 17 30.43 1031 10 16 N/A
9:53 pm 21:53 Clear 31 -0.6 16 -8.9 54 54 ESE 9 15 30.40 1030 10 16 N/A
10:53 pm 22:53 Clear 29 -1.7 16 -8.9 58 58 E 8 13 30.38 1029 10 16 N/A
11:53 pm 23:53 Clear 28 -2.2 16 -8.9 60 60 E 8 13 30.37 1028 10 16 N/A

Powered by AerisWeather